Location: Home
(42.5358°N, 72.7383°W)
Time: 16:06:18
(UTC-04:00)

Explorer 11/Cluster Stage 4 - Pass Details

Date: 05 August 2024
Orbit: 464 x 1208 km, 28.8° (Epoch: 19 September)

Event Time Altitude Azimuth Distance (km) Brightness Sun altitude
Rises 01:05:27 0° 217° (SW) 3,747 - -30.6°
Reaches altitude 10° 01:08:57 10° 199° (SSW) 2,916 - -30.6°
Maximum altitude 01:13:43 19° 159° (SSE) 2,454 - -30.5°
Drops below altitude 10° 01:18:46 10° 118° (ESE) 3,123 - -30.4°
Exits shadow 01:20:36 - 110° (ESE) 3,559 9.8 -30.4°
Sets 01:22:40 0° 102° (ESE) 4,112 10.2 -30.3°
